Weather History for Bryce Canyon, UT

Change the Weather History Date:

Saturday, January 12, 2013

  Actual Average Record
Temperature  
Mean Temperature -5 °F -  
Max Temperature 12 °F 37 °F 55 °F (1990)
Min Temperature -22 °F 11 °F -25 °F (1963)
Degree Days  
Heating Degree Days 70    
Moisture  
Dew Point -13 °F    
Average Humidity 76    
Maximum Humidity 91    
Minimum Humidity 46    
Precipitation  
Precipitation 0.00 in - - ()
Sea Level Pressure  
Sea Level Pressure 30.16 in    
Wind  
Wind Speed 7 mph (West)    
Max Wind Speed 12 mph    
Max Gust Speed -    
Visibility 10 miles    
Events      
Averages and records for this station are not official NWS values.
T = Trace of Precipitation, MM = Missing Value Source: NWS Daily Summary

Daily Weather History Graph

Daily Weather History Graph

Search for Another Location

Airport:

Trip Planner

Search our weather history database for the weather conditions in past years. The results will help you decide how hot, cold, wet, or windy it might be!

Date:

Astronomy

Jan. 12, 2013 Rise Set
Actual Time 7:43 AM MST 5:31 PM MST
Civil Twilight 7:14 AM MST 5:59 PM MST
Nautical Twilight 6:42 AM MST 6:32 PM MST
Astronomical Twilight 6:10 AM MST 7:03 PM MST
Moon 8:06 AM MST (1/12) 7:01 PM MST (1/12)
Length of Visible Light 10h 45m
Length of Day
9h 47m
New Moon, 1% of the Moon is Illuminated
Jan 12
New Moon
Jan 18
First Quarter
Jan 26
Full
Feb 3
Last Quarter
Feb 10
New

Hourly Weather History & Observations

Time (MST) Temp. Windchill Dew Point Humidity Pressure Visibility Wind Dir Wind Speed Gust Speed Precip Events Conditions
12:53 AM -16.1 °F -33.7 °F -20.0 °F 82% 30.07 in 10.0 mi West 8.1 mph - N/A   Clear
1:53 AM -18.9 °F -32.0 °F -22.0 °F 86% 30.08 in 10.0 mi West 4.6 mph - N/A   Clear
2:53 AM -18.9 °F -34.0 °F -24.0 °F 78% 30.08 in 10.0 mi West 5.8 mph - N/A   Clear
3:53 AM -15.0 °F -35.9 °F -20.9 °F 75% 30.06 in 10.0 mi West 11.5 mph - N/A   Clear
4:53 AM -20.0 °F -39.9 °F -26.0 °F 74% 30.11 in 10.0 mi West 9.2 mph - N/A   Clear
5:53 AM -20.9 °F -39.7 °F -25.1 °F 81% 30.17 in 10.0 mi West 8.1 mph - N/A   Clear
6:53 AM -20.9 °F -43.3 °F -26.0 °F 77% 30.23 in 10.0 mi West 11.5 mph - N/A   Clear
7:53 AM -22.0 °F -39.4 °F -26.0 °F 82% 30.29 in 10.0 mi WSW 6.9 mph - N/A   Clear
8:53 AM -18.0 °F -33.0 °F -20.9 °F 87% 30.26 in 10.0 mi WSW 5.8 mph - N/A   Clear
9:53 AM -11.0 °F -22.8 °F -13.0 °F 91% 30.23 in 10.0 mi WSW 4.6 mph - N/A   Clear
10:53 AM -2.9 °F - -7.1 °F 82% 30.18 in 10.0 mi Calm Calm - N/A   Scattered Clouds
11:53 AM 3.9 °F -5.3 °F -5.1 °F 66% 30.15 in 10.0 mi WSW 4.6 mph - N/A   Overcast
12:53 PM 12.0 °F 5.9 °F -5.1 °F 46% 30.09 in 10.0 mi North 3.5 mph - N/A   Overcast
1:53 PM 10.9 °F -0.8 °F -0.9 °F 59% 30.10 in 10.0 mi WNW 8.1 mph - N/A   Overcast
2:53 PM 10.9 °F 0.2 °F -2.9 °F 54% 30.11 in 10.0 mi West 6.9 mph - N/A   Mostly Cloudy
3:53 PM 8.1 °F -4.3 °F -0.0 °F 70% 30.12 in 10.0 mi NE 8.1 mph - N/A   Mostly Cloudy
4:53 PM 8.1 °F -4.3 °F -2.0 °F 64% 30.14 in 10.0 mi WNW 8.1 mph - N/A   Mostly Cloudy
5:53 PM 3.0 °F -11.5 °F -4.0 °F 73% 30.19 in 10.0 mi WNW 9.2 mph - N/A   Clear
6:53 PM -2.9 °F -18.8 °F -7.1 °F 82% 30.24 in 10.0 mi WSW 9.2 mph - N/A   Partly Cloudy
7:53 PM -2.0 °F -13.9 °F -7.1 °F 79% 30.25 in 10.0 mi NNW 5.8 mph - N/A   Overcast
8:53 PM -2.0 °F -17.7 °F -5.1 °F 87% 30.22 in 10.0 mi NW 9.2 mph - N/A   Scattered Clouds
10:53 PM -15.0 °F - -18.0 °F 86% 30.22 in 10.0 mi Calm Calm - N/A   Clear
11:53 PM -17.0 °F -31.7 °F -20.9 °F 82% 30.20 in 10.0 mi West 5.8 mph - N/A   Clear